EA7JCM-13 Weather Reports


time (UTC)temp
C
wind
direction
speed
KPH
gust
KPH
rain 1hr
cm
rain 24hr
cm
rain mn
cm
humidity
%
barometer
mb
20260507033003 12 174 3.2 6.4 0.00 0.00 0.00 67 1006.6
20260507032504 12 163 1.6 6.4 0.00 0.00 0.00 67 1006.5
20260507032004 12 166 3.2 3.2 0.00 0.00 0.00 66 1006.4
20260507031503 12 178 1.6 3.2 0.00 0.00 0.00 66 1006.5
20260507031003 12 181 1.6 3.2 0.00 0.00 0.00 65 1006.2
20260507030503 13 126 0.0 3.2 0.00 0.00 0.00 64 1006.5
20260507030003 13 112 0.0 3.2 0.00 0.00 0.00 63 1006.6
20260507025504 13 112 3.2 6.4 0.00 0.00 0.00 62 1006.5
20260507025004 13 111 0.0 6.4 0.00 0.00 0.00 61 1006.5
20260507024503 13 124 3.2 6.4 0.00 0.00 0.00 61 1006.6
20260507024003 13 138 0.0 3.2 0.00 0.00 0.00 61 1006.6
20260507023504 13 120 0.0 3.2 0.00 0.00 0.00 60 1006.5
20260507023003 13 106 0.0 6.4 0.00 0.00 0.00 60 1006.7
20260507022503 13 124 1.6 6.4 0.00 0.00 0.00 60 1006.6
20260507022003 14 146 3.2 6.4 0.00 0.00 0.00 59 1006.7
20260507021503 14 132 1.6 6.4 0.00 0.00 0.00 59 1006.7
20260507021003 14 121 1.6 3.2 0.00 0.00 0.00 58 1006.7
20260507020503 14 136 0.0 6.4 0.00 0.00 0.00 59 1006.6
20260507020004 14 130 0.0 6.4 0.00 0.00 0.00 58 1006.5
20260507015503 14 114 1.6 6.4 0.00 0.00 0.00 58 1006.7
20260507015003 14 134 3.2 6.4 0.00 0.00 0.00 58 1006.8
20260507014503 14 122 1.6 6.4 0.00 0.00 0.00 58 1006.7
20260507014003 14 108 1.6 6.4 0.00 0.00 0.00 58 1006.8
20260507013503 14 126 3.2 6.4 0.00 0.00 0.00 57 1006.6
20260507013004 14 150 3.2 9.7 0.00 0.00 0.00 57 1006.7
20260507012503 14 148 3.2 9.7 0.00 0.00 0.00 58 1006.6
20260507012003 14 124 1.6 6.4 0.00 0.00 0.00 58 1006.9
20260507011504 14 114 3.2 6.4 0.00 0.00 0.00 58 1007.0
20260507011003 14 150 3.2 9.7 0.00 0.00 0.00 57 1006.9
20260507010503 14 156 1.6 9.7 0.00 0.00 0.00 57 1006.9
20260507010004 14 171 3.2 11.3 0.00 0.00 0.00 58 1006.9
20260507005503 14 175 3.2 11.3 0.00 0.00 0.00 58 1006.9
20260507005003 14 149 4.8 11.3 0.00 0.00 0.00 58 1007.0
20260507004504 14 142 3.2 11.3 0.00 0.00 0.00 58 1006.8
20260507004003 14 136 3.2 9.7 0.00 0.00 0.00 58 1006.8
20260507003504 14 129 3.2 11.3 0.00 0.00 0.00 58 1007.1
20260507003003 14 134 3.2 11.3 0.00 0.00 0.00 58 1007.0
20260507002503 14 154 6.4 14.5 0.00 0.00 0.00 57 1007.0
20260507002003 14 163 3.2 14.5 0.00 0.00 0.00 56 1007.2
20260507001503 14 151 3.2 11.3 0.00 0.00 0.00 55 1007.1
20260507001004 14 112 4.8 11.3 0.00 0.00 0.00 54 1007.0
20260507000503 14 136 4.8 12.9 0.00 0.00 0.00 52 1007.1
20260507000004 14 171 3.2 12.9 0.00 0.00 0.00 52 1007.2
20260506235504 14 179 6.4 12.9 0.00 0.00 0.00 52 1007.1
20260506235003 15 177 4.8 12.9 0.00 0.00 0.00 52 1007.1
20260506234504 15 178 4.8 17.7 0.00 0.00 0.00 51 1007.1
20260506234003 15 196 6.4 17.7 0.00 0.00 0.00 50 1007.4
20260506233503 15 193 9.7 17.7 0.00 0.00 0.00 49 1007.3
20260506233003 15 181 6.4 17.7 0.00 0.00 0.00 48 1007.1
20260506232503 15 138 11.3 17.7 0.00 0.00 0.00 46 1007.1
20260506232003 16 102 4.8 6.4 0.00 0.00 0.00 44 1006.8
20260506231504 16 103 6.4 6.4 0.00 0.00 0.00 44 1007.0
20260506231004 16 98 3.2 6.4 0.00 0.00 0.00 44 1006.8
20260506230503 16 94 4.8 6.4 0.00 0.00 0.00 43 1006.7
20260506230004 16 98 6.4 6.4 0.00 0.00 0.00 43 1006.7
20260506225504 16 96 4.8 6.4 0.00 0.00 0.00 42 1006.7
20260506225003 16 94 3.2 6.4 0.00 0.00 0.00 42 1006.8
20260506224503 16 95 6.4 6.4 0.00 0.00 0.00 42 1006.5
20260506224003 16 91 3.2 6.4 0.00 0.00 0.00 42 1006.6
20260506223504 16 93 3.2 6.4 0.00 0.00 0.00 42 1006.7
20260506223003 16 94 3.2 6.4 0.00 0.00 0.00 42 1006.5
20260506222503 17 92 3.2 6.4 0.00 0.00 0.00 41 1006.6
20260506222004 17 95 3.2 6.4 0.00 0.00 0.00 41 1006.7
20260506221504 17 96 3.2 6.4 0.00 0.00 0.00 41 1006.6
20260506221004 17 92 4.8 6.4 0.00 0.00 0.00 41 1006.6
20260506220503 17 94 1.6 6.4 0.00 0.00 0.00 42 1006.5
20260506220007 16 92 3.2 6.4 0.00 0.00 0.00 42 1006.7
20260506215503 16 92 3.2 6.4 0.00 0.00 0.00 41 1006.8
20260506215004 16 102 3.2 6.4 0.00 0.00 0.00 41 1006.6
20260506214504 16 97 3.2 6.4 0.00 0.00 0.00 41 1006.6
20260506214003 16 93 3.2 6.4 0.00 0.00 0.00 41 1006.6
20260506213504 16 96 4.8 6.4 0.00 0.00 0.00 41 1006.7
20260506213004 16 94 6.4 6.4 0.00 0.00 0.00 41 1006.7
20260506212503 16 94 4.8 9.7 0.00 0.00 0.00 42 1006.7
20260506212004 16 94 4.8 9.7 0.00 0.00 0.00 42 1006.7
20260506211503 16 94 4.8 9.7 0.00 0.00 0.00 42 1006.7
20260506211004 16 99 4.8 6.4 0.00 0.00 0.00 42 1006.6
20260506210503 16 102 4.8 6.4 0.00 0.00 0.00 41 1006.7
20260506210004 16 98 4.8 9.7 0.00 0.00 0.00 41 1006.6
20260506205504 16 90 4.8 9.7 0.00 0.00 0.00 41 1006.6
20260506205004 16 91 4.8 9.7 0.00 0.00 0.00 41 1006.5
20260506204503 16 98 4.8 9.7 0.00 0.00 0.00 41 1006.4
20260506204004 16 96 4.8 9.7 0.00 0.00 0.00 41 1006.3
20260506203503 16 98 3.2 6.4 0.00 0.00 0.00 41 1006.3
20260506203003 16 101 3.2 6.4 0.00 0.00 0.00 41 1006.4
20260506202504 16 97 4.8 6.4 0.00 0.00 0.00 40 1006.3
20260506202003 16 100 3.2 6.4 0.00 0.00 0.00 41 1006.1
20260506201503 17 104 3.2 6.4 0.00 0.00 0.00 40 1006.2
20260506201001 17 109 3.2 6.4 0.00 0.00 0.00 40 1006.3
20260506200501 17 105 3.2 6.4 0.00 0.00 0.00 39 1006.1
20260506200002 17 104 4.8 6.4 0.00 0.00 0.00 38 1006.1
20260506195502 17 107 3.2 6.4 0.00 0.00 0.00 37 1005.9
20260506195001 17 114 4.8 6.4 0.00 0.00 0.00 37 1005.9
20260506194501 18 143 3.2 3.2 0.00 0.00 0.00 35 1006.1
20260506194001 18 166 1.6 3.2 0.00 0.00 0.00 33 1005.7
20260506193501 18 184 1.6 6.4 0.00 0.00 0.00 33 1005.8
20260506193001 18 193 1.6 6.4 0.00 0.00 0.00 32 1005.6
20260506192501 18 205 3.2 6.4 0.00 0.00 0.00 32 1005.7
20260506192001 18 218 1.6 6.4 0.00 0.00 0.00 31 1005.9
20260506191501 19 217 3.2 6.4 0.00 0.00 0.00 31 1005.7
20260506191001 19 212 3.2 6.4 0.00 0.00 0.00 30 1005.6
20260506190502 19 223 3.2 6.4 0.00 0.00 0.00 29 1005.6
20260506190002 20 234 3.2 6.4 0.00 0.00 0.00 28 1005.6
20260506185501 20 237 3.2 6.4 0.00 0.00 0.00 27 1005.6
20260506185001 20 235 3.2 6.4 0.00 0.00 0.00 27 1005.6
20260506184502 20 228 4.8 9.7 0.00 0.00 0.00 27 1005.5
20260506184002 20 219 3.2 9.7 0.00 0.00 0.00 28 1005.8
20260506183503 20 214 4.8 9.7 0.00 0.00 0.00 28 1005.5
20260506183002 20 211 6.4 9.7 0.00 0.00 0.00 27 1005.5
20260506182502 20 211 3.2 11.3 0.00 0.00 0.00 28 1005.5
20260506182001 20 209 8.0 11.3 0.00 0.00 0.00 28 1005.6
20260506181502 21 192 3.2 9.7 0.00 0.00 0.00 29 1005.6
20260506181002 20 212 3.2 11.3 0.00 0.00 0.00 29 1005.5
20260506180502 20 234 6.4 11.3 0.00 0.00 0.00 29 1005.5
20260506180002 21 219 3.2 11.3 0.00 0.00 0.00 28 1005.7
20260506175502 20 204 6.4 11.3 0.00 0.00 0.00 27 1005.7
20260506175001 20 218 4.8 11.3 0.00 0.00 0.00 29 1005.7
20260506174502 20 235 6.4 11.3 0.00 0.00 0.00 31 1005.8
20260506174001 20 243 6.4 11.3 0.00 0.00 0.00 32 1005.9
20260506173501 20 238 4.8 14.5 0.00 0.00 0.00 32 1005.8
20260506173002 20 236 3.2 14.5 0.00 0.00 0.00 32 1005.7
20260506172503 20 245 11.3 14.5 0.00 0.00 0.00 31 1005.8
20260506172002 20 235 4.8 11.3 0.00 0.00 0.00 31 1006.0
20260506171502 20 218 6.4 14.5 0.00 0.00 0.00 31 1006.0
20260506171001 20 226 4.8 14.5 0.00 0.00 0.00 32 1005.9
20260506170502 20 230 3.2 12.9 0.00 0.00 0.00 32 1005.8
20260506170002 21 227 8.0 12.9 0.00 0.00 0.00 31 1006.1
20260506165501 21 221 3.2 14.5 0.00 0.00 0.00 31 1006.0
20260506165001 21 225 3.2 14.5 0.00 0.00 0.00 31 1005.9
20260506164502 21 248 6.4 14.5 0.00 0.00 0.00 31 1005.9
20260506164001 21 247 6.4 17.7 0.00 0.00 0.00 30 1005.9
20260506163501 21 253 4.8 17.7 0.00 0.00 0.00 31 1006.1
20260506163002 20 264 8.0 17.7 0.00 0.00 0.00 32 1006.1
20260506162501 20 261 6.4 17.7 0.00 0.00 0.00 32 1006.0
20260506162002 21 251 6.4 12.9 0.00 0.00 0.00 32 1006.0
20260506161501 20 256 6.4 14.5 0.00 0.00 0.00 32 1006.0
20260506161001 21 255 6.4 17.7 0.00 0.00 0.00 31 1006.1
20260506160502 21 242 6.4 17.7 0.00 0.00 0.00 32 1006.0
20260506160001 20 251 8.0 14.5 0.00 0.00 0.00 32 1006.0
20260506155501 20 270 8.0 17.7 0.00 0.00 0.00 32 1006.1
20260506155002 21 258 3.2 17.7 0.00 0.00 0.00 32 1006.1
20260506154501 21 242 6.4 17.7 0.00 0.00 0.00 32 1006.2
20260506154001 22 259 6.4 14.5 0.00 0.00 0.00 31 1006.2
20260506153502 21 263 4.8 14.5 0.00 0.00 0.00 31 1006.1
20260506153001 21 257 3.2 17.7 0.00 0.00 0.00 32 1006.1
20260506152501 20 246 11.3 17.7 0.00 0.00 0.00 32 1006.1
20260506152003 20 223 4.8 14.5 0.00 0.00 0.00 32 1006.2
20260506151502 20 210 9.7 14.5 0.00 0.00 0.00 32 1006.3
20260506151001 20 233 6.4 14.5 0.00 0.00 0.00 32 1006.3
20260506150501 21 260 3.2 12.9 0.00 0.00 0.00 32 1006.3
20260506150002 21 233 4.8 12.9 0.00 0.00 0.00 32 1006.3
20260506145502 21 228 0.0 12.9 0.00 0.00 0.00 31 1006.4
20260506145001 21 237 9.7 12.9 0.00 0.00 0.00 31 1006.6
20260506144501 21 272 4.8 12.9 0.00 0.00 0.00 31 1006.5
20260506144003 21 286 1.6 12.9 0.00 0.00 0.00 31 1006.8
20260506143501 21 258 3.2 17.7 0.00 0.00 0.00 32 1006.7
20260506143001 21 252 6.4 17.7 0.00 0.00 0.00 33 1006.6
20260506142502 20 242 9.7 17.7 0.00 0.00 0.00 33 1007.0
20260506142001 21 237 4.8 11.3 0.00 0.00 0.00 33 1007.0
20260506141502 21 267 3.2 11.3 0.00 0.00 0.00 32 1006.9
20260506141001 22 243 6.4 12.9 0.00 0.00 0.00 31 1007.0
20260506140501 21 230 4.8 14.5 0.00 0.00 0.00 33 1007.1
20260506140002 21 229 6.4 32.2 0.00 0.00 0.00 32 1007.1
20260506135501 21 226 3.2 32.2 0.00 0.00 0.00 34 1007.3
20260506135001 21 277 0.0 9.7 0.00 0.00 0.00 31 1006.9
20260506134501 22 263 1.6 11.3 0.00 0.00 0.00 32 1007.2
20260506134001 21 257 8.0 11.3 0.00 0.00 0.00 31 1007.2
20260506133502 21 252 3.2 14.5 0.00 0.00 0.00 33 1007.1
20260506133001 20 253 6.4 14.5 0.00 0.00 0.00 34 1007.3
20260506132502 20 242 3.2 14.5 0.00 0.00 0.00 33 1007.2
20260506132001 21 251 1.6 12.9 0.00 0.00 0.00 33 1007.3
20260506131502 21 287 3.2 12.9 0.00 0.00 0.00 33 1007.5
20260506131002 21 286 4.8 12.9 0.00 0.00 0.00 34 1007.4
20260506130501 20 269 6.4 12.9 0.00 0.00 0.00 34 1007.5
20260506130001 21 273 4.8 9.7 0.00 0.00 0.00 33 1007.7
20260506125501 20 275 3.2 11.3 0.00 0.00 0.00 34 1007.5
20260506125002 21 266 3.2 11.3 0.00 0.00 0.00 35 1007.5
20260506124502 21 295 3.2 6.4 0.00 0.00 0.00 35 1007.5
20260506124001 21 286 1.6 9.7 0.00 0.00 0.00 35 1007.7
20260506123502 20 260 3.2 11.3 0.00 0.00 0.00 35 1007.6
20260506123001 20 270 3.2 11.3 0.00 0.00 0.00 34 1007.5
20260506122503 20 276 4.8 11.3 0.00 0.00 0.00 35 1007.8
20260506122001 21 268 3.2 11.3 0.00 0.00 0.00 35 1007.8
20260506121502 21 268 4.8 12.9 0.00 0.00 0.00 36 1007.8
20260506121001 20 259 4.8 12.9 0.00 0.00 0.00 35 1007.8
20260506120501 20 270 3.2 9.7 0.00 0.00 0.00 35 1007.9
20260506120002 20 314 4.8 6.4 0.00 0.00 0.00 34 1008.0
20260506115501 20 310 3.2 6.4 0.00 0.00 0.00 37 1007.9
20260506115001 19 281 1.6 6.4 0.00 0.00 0.00 35 1008.0
20260506114502 19 286 3.2 9.7 0.00 0.00 0.00 35 1008.3
20260506114001 20 290 3.2 12.9 0.00 0.00 0.00 34 1008.1
20260506113502 20 313 3.2 12.9 0.00 0.00 0.00 35 1008.2
20260506113002 20 310 6.4 12.9 0.00 0.00 0.00 36 1008.5
20260506112501 20 265 1.6 9.7 0.00 0.00 0.00 36 1008.2
20260506112002 19 255 4.8 9.7 0.00 0.00 0.00 36 1008.3
20260506111502 18 271 3.2 9.7 0.00 0.00 0.00 36 1008.4
20260506111002 19 302 4.8 9.7 0.00 0.00 0.00 37 1008.3
20260506110503 20 274 3.2 9.7 0.00 0.00 0.00 37 1008.4
20260506110002 19 272 1.6 6.4 0.00 0.00 0.00 35 1008.5
20260506105502 20 32 3.2 6.4 0.00 0.00 0.00 35 1008.5
20260506105001 18 65 3.2 6.4 0.00 0.00 0.00 34 1008.6
20260506104501 18 328 3.2 6.4 0.00 0.00 0.00 33 1008.8
20260506104002 19 319 3.2 6.4 0.00 0.00 0.00 38 1008.6
20260506103501 19 339 3.2 6.4 0.00 0.00 0.00 39 1008.7
20260506103002 18 354 3.2 6.4 0.00 0.00 0.00 40 1008.7
20260506102501 18 318 3.2 6.4 0.00 0.00 0.00 42 1008.7
20260506102001 18 291 0.0 11.3 0.00 0.00 0.00 41 1008.3
20260506101502 18 289 3.2 11.3 0.00 0.00 0.00 43 1008.9
20260506101001 18 276 3.2 11.3 0.00 0.00 0.00 43 1008.7
20260506100501 18 279 6.4 11.3 0.00 0.00 0.00 44 1008.8
20260506100003 17 297 3.2 11.3 0.00 0.00 0.00 47 1008.8
20260506095502 17 359 4.8 11.3 0.00 0.00 0.00 47 1008.8
20260506095002 18 29 4.8 11.3 0.00 0.00 0.00 43 1009.1
20260506094502 18 14 4.8 9.7 0.00 0.00 0.00 43 1008.8
20260506094002 18 333 3.2 6.4 0.00 0.00 0.00 43 1008.9
20260506093502 18 300 1.6 6.4 0.00 0.00 0.00 45 1008.9
20260506093002 17 278 1.6 6.4 0.00 0.00 0.00 45 1008.9
20260506092501 17 282 1.6 6.4 0.00 0.00 0.00 47 1009.0
20260506092002 17 304 3.2 6.4 0.00 0.00 0.00 48 1008.9
20260506091502 18 300 1.6 6.4 0.00 0.00 0.00 47 1008.8
20260506091001 18 327 0.0 6.4 0.00 0.00 0.00 47 1008.7
20260506090502 17 340 1.6 6.4 0.00 0.00 0.00 47 1008.7
20260506090002 17 307 1.6 6.4 0.00 0.00 0.00 46 1008.6
20260506085502 17 328 1.6 6.4 0.00 0.00 0.00 46 1008.9
20260506085001 17 13 1.6 6.4 0.00 0.00 0.00 47 1009.0
20260506084502 17 6 0.0 6.4 0.00 0.00 0.00 48 1009.0
20260506084001 16 18 1.6 6.4 0.00 0.00 0.00 48 1009.0
20260506083502 17 28 0.0 6.4 0.00 0.00 0.00 47 1008.9
20260506083003 16 358 3.2 6.4 0.00 0.00 0.00 48 1009.0
20260506082502 16 340 3.2 6.4 0.00 0.00 0.00 49 1008.6
20260506082003 16 3 3.2 6.4 0.00 0.00 0.00 47 1008.8
20260506081501 16 343 3.2 6.4 0.00 0.00 0.00 47 1008.8
20260506081002 16 329 1.6 6.4 0.00 0.00 0.00 49 1009.0
20260506080502 15 354 1.6 6.4 0.00 0.00 0.00 52 1008.8
20260506073502 14 35 1.6 3.2 0.00 0.00 0.00 54 1008.6
20260506073002 15 40 0.0 3.2 0.00 0.00 0.00 52 1008.8
20260506072502 14 33 0.0 3.2 0.00 0.00 0.00 52 1008.9
20260506072001 15 31 3.2 3.2 0.00 0.00 0.00 48 1008.8
20260506071502 15 43 3.2 3.2 0.00 0.00 0.00 47 1009.0
20260506071002 14 45 0.0 3.2 0.00 0.00 0.00 51 1008.9
20260506070502 15 50 0.0 3.2 0.00 0.00 0.00 50 1008.9
20260506062502 11 87 1.6 6.4 0.00 0.00 0.00 65 1008.9
20260506062002 10 87 3.2 6.4 0.00 0.00 0.00 66 1008.8
20260506061503 10 91 3.2 6.4 0.00 0.00 0.00 66 1008.9
20260506061002 10 91 3.2 6.4 0.00 0.00 0.00 66 1008.8
20260506060502 10 86 3.2 6.4 0.00 0.00 0.00 67 1008.8
20260506051002 10 96 3.2 6.4 0.00 0.00 0.00 67 1008.4
20260506050502 9 97 3.2 6.4 0.00 0.00 0.00 67 1008.6
20260506045002 9 89 3.2 6.4 0.00 0.00 0.00 68 1008.6
20260506044502 9 102 3.2 6.4 0.00 0.00 0.00 67 1008.4
20260506044002 9 99 4.8 6.4 0.00 0.00 0.00 67 1008.6
20260506043503 9 89 3.2 6.4 0.00 0.00 0.00 68 1008.6
20260506043002 9 88 3.2 6.4 0.00 0.00 0.00 68 1008.6
20260506042503 9 95 1.6 6.4 0.00 0.00 0.00 68 1008.5
20260506042002 9 98 3.2 6.4 0.00 0.00 0.00 67 1008.7
20260506041502 9 96 3.2 6.4 0.00 0.00 0.00 67 1008.7
20260506041002 10 96 3.2 6.4 0.00 0.00 0.00 67 1008.6
20260506040502 9 96 3.2 6.4 0.00 0.00 0.00 67 1008.7
20260506040003 9 94 3.2 6.4 0.00 0.00 0.00 69 1008.7
20260506035502 9 96 3.2 6.4 0.00 0.00 0.00 69 1008.7
20260506035002 9 95 4.8 6.4 0.00 0.00 0.00 69 1008.9
20260506034503 9 95 4.8 6.4 0.00 0.00 0.00 69 1008.7
20260506034002 9 92 3.2 6.4 0.00 0.00 0.00 68 1008.6
20260506033502 10 96 3.2 6.4 0.00 0.00 0.00 67 1008.5